| time (UTC) | temp F | wind direction | speed MPH | gust MPH | rain 1hr in | rain 24hr in | rain mn in | humidity % | barometer mb |
| 20260506044038 | 62 | 18 | 10.0 | 17.0 | 0.00 | 0.00 | 0.00 | 82 | 1010.3 |
| 20260506043537 | 62 | 16 | 9.0 | 18.0 | 0.00 | 0.00 | 0.00 | 81 | 1010.2 |
| 20260506043050 | 62 | 360 | 10.0 | 18.0 | 0.00 | 0.00 | 0.00 | 82 | 1010.2 |
| 20260506042538 | 62 | 360 | 10.0 | 14.0 | 0.00 | 0.00 | 0.00 | 82 | 1010.1 |
| 20260506042037 | 62 | 334 | 7.0 | 18.0 | 0.00 | 0.00 | 0.00 | 82 | 1010.1 |
| 20260506041555 | 62 | 42 | 10.0 | 19.0 | 0.00 | 0.00 | 0.00 | 81 | 1010.1 |
| 20260506041037 | 63 | 38 | 10.0 | 19.0 | 0.00 | 0.00 | 0.00 | 81 | 1010.1 |
| 20260506040537 | 63 | 5 | 10.0 | 17.0 | 0.00 | 0.00 | 0.00 | 81 | 1009.9 |
| 20260506040053 | 63 | 348 | 10.0 | 17.0 | 0.00 | 0.00 | 0.00 | 82 | 1009.9 |
| 20260506035537 | 63 | 352 | 11.0 | 17.0 | 0.00 | 0.00 | 0.00 | 81 | 1009.6 |
| 20260506035037 | 63 | 352 | 8.0 | 16.0 | 0.00 | 0.00 | 0.00 | 81 | 1009.6 |
| 20260506034552 | 63 | 14 | 10.0 | 18.0 | 0.00 | 0.00 | 0.00 | 80 | 1009.4 |
| 20260506034038 | 63 | 29 | 11.0 | 18.0 | 0.00 | 0.00 | 0.00 | 80 | 1009.6 |
| 20260506033538 | 64 | 16 | 10.0 | 16.0 | 0.00 | 0.00 | 0.00 | 80 | 1009.4 |
| 20260506033101 | 64 | 36 | 11.0 | 21.0 | 0.00 | 0.00 | 0.00 | 80 | 1009.3 |
| 20260506032538 | 64 | 26 | 9.0 | 21.0 | 0.00 | 0.00 | 0.00 | 80 | 1009.3 |
| 20260506032038 | 64 | 11 | 13.0 | 21.0 | 0.00 | 0.00 | 0.00 | 80 | 1009.3 |
| 20260506031552 | 64 | 352 | 11.0 | 18.0 | 0.00 | 0.00 | 0.00 | 80 | 1009.4 |
| 20260506031040 | 65 | 20 | 9.0 | 18.0 | 0.00 | 0.00 | 0.00 | 80 | 1009.4 |
| 20260506030537 | 65 | 13 | 9.0 | 17.0 | 0.00 | 0.00 | 0.00 | 80 | 1009.0 |
| 20260506030100 | 65 | 30 | 11.0 | 16.0 | 0.00 | 0.00 | 0.00 | 79 | 1009.1 |
| 20260506025537 | 66 | 13 | 9.0 | 17.0 | 0.00 | 0.00 | 0.00 | 79 | 1009.1 |
| 20260506025039 | 66 | 41 | 10.0 | 17.0 | 0.00 | 0.00 | 0.00 | 78 | 1008.7 |
| 20260506024608 | 67 | 26 | 9.0 | 16.0 | 0.00 | 0.00 | 0.00 | 78 | 1008.7 |
| 20260506024037 | 67 | 351 | 10.0 | 17.0 | 0.00 | 0.00 | 0.00 | 78 | 1008.6 |
| 20260506023538 | 68 | 5 | 10.0 | 17.0 | 0.00 | 0.00 | 0.00 | 79 | 1008.4 |
| 20260506023046 | 68 | 13 | 10.0 | 15.0 | 0.00 | 0.00 | 0.00 | 78 | 1008.1 |
| 20260506022540 | 68 | 351 | 8.0 | 15.0 | 0.00 | 0.00 | 0.00 | 78 | 1007.9 |
| 20260506022038 | 68 | 10 | 8.0 | 14.0 | 0.00 | 0.00 | 0.00 | 78 | 1007.6 |
| 20260506021555 | 68 | 29 | 8.0 | 15.0 | 0.00 | 0.00 | 0.00 | 78 | 1007.7 |
| 20260506021040 | 69 | 360 | 6.0 | 16.0 | 0.00 | 0.00 | 0.00 | 78 | 1007.5 |
| 20260506020537 | 69 | 5 | 10.0 | 18.0 | 0.00 | 0.00 | 0.00 | 77 | 1007.4 |
| 20260506020049 | 69 | 9 | 10.0 | 18.0 | 0.00 | 0.00 | 0.00 | 76 | 1007.2 |
| 20260506015541 | 70 | 360 | 8.0 | 13.0 | 0.00 | 0.00 | 0.00 | 76 | 1007.2 |
| 20260506015038 | 70 | 28 | 8.0 | 13.0 | 0.00 | 0.00 | 0.00 | 77 | 1007.1 |
| 20260506014549 | 70 | 350 | 8.0 | 12.0 | 0.00 | 0.00 | 0.00 | 77 | 1007.1 |
| 20260506014037 | 70 | 360 | 8.0 | 12.0 | 0.00 | 0.00 | 0.00 | 76 | 1007.0 |
| 20260506013537 | 70 | 351 | 8.0 | 12.0 | 0.00 | 0.00 | 0.00 | 77 | 1006.8 |
| 20260506013049 | 71 | 9 | 8.0 | 12.0 | 0.00 | 0.00 | 0.00 | 76 | 1006.7 |
| 20260506012537 | 71 | 339 | 7.0 | 14.0 | 0.00 | 0.00 | 0.00 | 75 | 1006.7 |
| 20260506012038 | 71 | 351 | 9.0 | 14.0 | 0.00 | 0.00 | 0.00 | 75 | 1006.7 |
| 20260506011609 | 71 | 9 | 8.0 | 11.0 | 0.00 | 0.00 | 0.00 | 75 | 1006.6 |
| 20260506011038 | 71 | 19 | 7.0 | 12.0 | 0.00 | 0.00 | 0.00 | 74 | 1006.7 |
| 20260506010538 | 71 | 17 | 6.0 | 15.0 | 0.00 | 0.00 | 0.00 | 73 | 1006.6 |
| 20260506010051 | 72 | 333 | 8.0 | 15.0 | 0.00 | 0.00 | 0.00 | 74 | 1006.5 |
| 20260506005538 | 72 | 352 | 10.0 | 14.0 | 0.00 | 0.00 | 0.00 | 74 | 1006.7 |
| 20260506005040 | 72 | 336 | 6.0 | 13.0 | 0.00 | 0.00 | 0.00 | 73 | 1006.7 |
| 20260506004550 | 72 | 352 | 7.0 | 13.0 | 0.00 | 0.00 | 0.00 | 73 | 1005.7 |
| 20260506004041 | 72 | 346 | 8.0 | 13.0 | 0.00 | 0.00 | 0.00 | 73 | 1005.9 |
| 20260506003538 | 72 | 13 | 8.0 | 14.0 | 0.00 | 0.00 | 0.00 | 73 | 1006.1 |
| 20260506003049 | 72 | 15 | 9.0 | 15.0 | 0.00 | 0.00 | 0.00 | 72 | 1005.9 |
| 20260506002537 | 73 | 328 | 8.0 | 15.0 | 0.00 | 0.00 | 0.00 | 73 | 1005.8 |
| 20260506002037 | 73 | 360 | 10.0 | 17.0 | 0.00 | 0.00 | 0.00 | 73 | 1005.4 |
| 20260506001549 | 73 | 5 | 9.0 | 19.0 | 0.00 | 0.00 | 0.00 | 73 | 1005.6 |
| 20260506001038 | 73 | 350 | 12.0 | 20.0 | 0.00 | 0.00 | 0.00 | 73 | 1005.5 |
| 20260506000538 | 74 | 352 | 13.0 | 20.0 | 0.00 | 0.00 | 0.00 | 72 | 1005.4 |
| 20260506000054 | 74 | 15 | 11.0 | 20.0 | 0.00 | 0.00 | 0.00 | 72 | 1005.4 |
| 20260505235540 | 75 | 29 | 14.0 | 20.0 | 0.00 | 0.00 | 0.00 | 71 | 1005.4 |
| 20260505235037 | 75 | 352 | 14.0 | 21.0 | 0.00 | 0.00 | 0.00 | 71 | 1005.3 |
| 20260505234546 | 75 | 360 | 14.0 | 21.0 | 0.00 | 0.00 | 0.00 | 70 | 1005.3 |
| 20260505234044 | 76 | 340 | 13.0 | 19.0 | 0.00 | 0.00 | 0.00 | 69 | 1005.3 |
| 20260505233540 | 77 | 352 | 15.0 | 23.0 | 0.00 | 0.00 | 0.00 | 68 | 1005.2 |
| 20260505233045 | 77 | 13 | 10.0 | 23.0 | 0.00 | 0.00 | 0.00 | 68 | 1005.1 |
| 20260505232540 | 77 | 327 | 16.0 | 23.0 | 0.00 | 0.00 | 0.00 | 67 | 1005.1 |
| 20260505232039 | 78 | 331 | 13.0 | 20.0 | 0.00 | 0.00 | 0.00 | 67 | 1005.0 |
| 20260505231552 | 78 | 352 | 14.0 | 20.0 | 0.00 | 0.00 | 0.00 | 67 | 1005.0 |
| 20260505231037 | 79 | 342 | 13.0 | 20.0 | 0.00 | 0.00 | 0.00 | 67 | 1004.9 |
| 20260505230536 | 79 | 344 | 14.0 | 20.0 | 0.00 | 0.00 | 0.00 | 66 | 1004.9 |
| 20260505230048 | 80 | 5 | 13.0 | 20.0 | 0.00 | 0.00 | 0.00 | 66 | 1004.7 |
| 20260505225538 | 81 | 352 | 14.0 | 20.0 | 0.00 | 0.00 | 0.00 | 65 | 1004.5 |
| 20260505225038 | 82 | 339 | 11.0 | 15.0 | 0.00 | 0.00 | 0.00 | 63 | 1004.3 |
| 20260505224547 | 82 | 343 | 10.0 | 15.0 | 0.00 | 0.00 | 0.00 | 63 | 1004.1 |
| 20260505224039 | 82 | 342 | 11.0 | 15.0 | 0.00 | 0.00 | 0.00 | 61 | 1004.4 |
| 20260505223545 | 83 | 342 | 10.0 | 16.0 | 0.00 | 0.00 | 0.00 | 59 | 1004.3 |
| 20260505223049 | 84 | 331 | 11.0 | 16.0 | 0.00 | 0.00 | 0.00 | 57 | 1004.2 |
| 20260505222541 | 84 | 350 | 11.0 | 16.0 | 0.00 | 0.00 | 0.00 | 55 | 1003.9 |
| 20260505222040 | 84 | 329 | 9.0 | 14.0 | 0.00 | 0.00 | 0.00 | 56 | 1003.8 |
| 20260505221600 | 84 | 351 | 9.0 | 13.0 | 0.00 | 0.00 | 0.00 | 56 | 1003.8 |
| 20260505221040 | 84 | 337 | 10.0 | 13.0 | 0.00 | 0.00 | 0.00 | 56 | 1003.8 |
| 20260505220540 | 84 | 329 | 9.0 | 16.0 | 0.00 | 0.00 | 0.00 | 55 | 1003.7 |
| 20260505220057 | 84 | 327 | 9.0 | 17.0 | 0.00 | 0.00 | 0.00 | 56 | 1003.5 |
| 20260505215541 | 84 | 335 | 11.0 | 17.0 | 0.00 | 0.00 | 0.00 | 56 | 1003.6 |
| 20260505215037 | 84 | 342 | 10.0 | 16.0 | 0.00 | 0.00 | 0.00 | 57 | 1003.7 |
| 20260505214553 | 84 | 288 | 5.0 | 9.0 | 0.00 | 0.00 | 0.00 | 64 | 1003.8 |
| 20260505214038 | 85 | 277 | 6.0 | 9.0 | 0.00 | 0.00 | 0.00 | 62 | 1003.8 |
| 20260505213539 | 84 | 295 | 4.0 | 8.0 | 0.00 | 0.00 | 0.00 | 65 | 1003.8 |
| 20260505213049 | 84 | 271 | 4.0 | 9.0 | 0.00 | 0.00 | 0.00 | 66 | 1003.7 |
| 20260505212538 | 84 | 279 | 6.0 | 9.0 | 0.00 | 0.00 | 0.00 | 65 | 1003.7 |
| 20260505212038 | 84 | 276 | 5.0 | 9.0 | 0.00 | 0.00 | 0.00 | 65 | 1003.9 |
| 20260505211551 | 85 | 239 | 3.0 | 6.0 | 0.00 | 0.00 | 0.00 | 65 | 1003.9 |
| 20260505211037 | 86 | 267 | 1.0 | 3.0 | 0.00 | 0.00 | 0.00 | 62 | 1004.0 |
| 20260505210541 | 85 | 274 | 0.0 | 3.0 | 0.00 | 0.00 | 0.00 | 65 | 1004.1 |
| 20260505210053 | 84 | 245 | 1.0 | 4.0 | 0.00 | 0.00 | 0.00 | 68 | 1004.2 |
| 20260505205541 | 83 | 254 | 2.0 | 4.0 | 0.00 | 0.00 | 0.00 | 70 | 1004.3 |
| 20260505205042 | 82 | 0 | 0.0 | 4.0 | 0.00 | 0.00 | 0.00 | 71 | 1004.3 |
| 20260505204558 | 82 | 235 | 2.0 | 6.0 | 0.00 | 0.00 | 0.00 | 73 | 1004.3 |
| 20260505204044 | 81 | 215 | 3.0 | 6.0 | 0.00 | 0.00 | 0.00 | 74 | 1004.4 |
| 20260505203537 | 80 | 222 | 4.0 | 8.0 | 0.00 | 0.00 | 0.00 | 73 | 1004.4 |
| 20260505203051 | 81 | 211 | 4.0 | 11.0 | 0.00 | 0.00 | 0.00 | 74 | 1004.4 |
| 20260505202541 | 81 | 233 | 6.0 | 12.0 | 0.00 | 0.00 | 0.00 | 72 | 1004.5 |
| 20260505202041 | 81 | 238 | 9.0 | 13.0 | 0.00 | 0.00 | 0.00 | 71 | 1004.6 |
| 20260505201551 | 81 | 242 | 8.0 | 15.0 | 0.00 | 0.00 | 0.00 | 71 | 1004.7 |
| 20260505201041 | 81 | 247 | 11.0 | 15.0 | 0.00 | 0.00 | 0.00 | 70 | 1004.6 |
| 20260505200538 | 80 | 242 | 10.0 | 13.0 | 0.00 | 0.00 | 0.00 | 72 | 1004.6 |
| 20260505200049 | 80 | 252 | 9.0 | 13.0 | 0.00 | 0.00 | 0.00 | 74 | 1004.7 |
| 20260505195540 | 80 | 232 | 10.0 | 13.0 | 0.00 | 0.00 | 0.00 | 72 | 1004.7 |
| 20260505195040 | 79 | 216 | 9.0 | 11.0 | 0.00 | 0.00 | 0.00 | 75 | 1004.8 |
| 20260505194557 | 79 | 221 | 6.0 | 11.0 | 0.00 | 0.00 | 0.00 | 76 | 1004.8 |
| 20260505194040 | 79 | 217 | 8.0 | 12.0 | 0.00 | 0.00 | 0.00 | 75 | 1004.8 |
| 20260505193539 | 79 | 217 | 9.0 | 12.0 | 0.00 | 0.00 | 0.00 | 74 | 1004.8 |
| 20260505193051 | 79 | 225 | 8.0 | 13.0 | 0.00 | 0.00 | 0.00 | 76 | 1005.0 |
| 20260505192540 | 79 | 217 | 8.0 | 13.0 | 0.00 | 0.00 | 0.00 | 76 | 1004.8 |
| 20260505192039 | 78 | 209 | 9.0 | 12.0 | 0.00 | 0.00 | 0.00 | 76 | 1004.7 |
| 20260505191550 | 78 | 205 | 9.0 | 12.0 | 0.00 | 0.00 | 0.00 | 76 | 1004.7 |
| 20260505191038 | 78 | 203 | 9.0 | 12.0 | 0.00 | 0.00 | 0.00 | 76 | 1004.8 |
| 20260505190539 | 78 | 216 | 9.0 | 16.0 | 0.00 | 0.00 | 0.00 | 77 | 1004.8 |
| 20260505190048 | 78 | 209 | 9.0 | 16.0 | 0.00 | 0.00 | 0.00 | 77 | 1004.7 |
| 20260505185538 | 78 | 215 | 12.0 | 15.0 | 0.00 | 0.00 | 0.00 | 76 | 1004.7 |
| 20260505185043 | 78 | 202 | 10.0 | 15.0 | 0.00 | 0.00 | 0.00 | 76 | 1004.8 |
| 20260505184553 | 78 | 203 | 11.0 | 15.0 | 0.00 | 0.00 | 0.00 | 76 | 1004.8 |
| 20260505184041 | 78 | 211 | 11.0 | 16.0 | 0.00 | 0.00 | 0.00 | 76 | 1004.8 |
| 20260505183543 | 78 | 195 | 12.0 | 16.0 | 0.00 | 0.00 | 0.00 | 76 | 1005.0 |
| 20260505183053 | 78 | 208 | 10.0 | 14.0 | 0.00 | 0.00 | 0.00 | 76 | 1005.0 |
| 20260505182540 | 78 | 231 | 10.0 | 13.0 | 0.00 | 0.00 | 0.00 | 75 | 1004.8 |
| 20260505182037 | 78 | 211 | 10.0 | 13.0 | 0.00 | 0.00 | 0.00 | 76 | 1004.9 |
| 20260505181545 | 77 | 215 | 8.0 | 19.0 | 0.00 | 0.00 | 0.00 | 77 | 1004.9 |
| 20260505181037 | 79 | 215 | 12.0 | 19.0 | 0.00 | 0.00 | 0.00 | 74 | 1004.9 |
| 20260505180536 | 78 | 218 | 12.0 | 17.0 | 0.00 | 0.00 | 0.00 | 76 | 1005.1 |
| 20260505180045 | 78 | 215 | 11.0 | 15.0 | 0.00 | 0.00 | 0.00 | 77 | 1005.1 |
| 20260505175535 | 77 | 196 | 10.0 | 14.0 | 0.00 | 0.00 | 0.00 | 78 | 1005.0 |
| 20260505175038 | 77 | 205 | 9.0 | 14.0 | 0.00 | 0.00 | 0.00 | 79 | 1004.9 |
| 20260505174549 | 77 | 197 | 9.0 | 16.0 | 0.00 | 0.00 | 0.00 | 78 | 1004.9 |
| 20260505174038 | 78 | 203 | 9.0 | 16.0 | 0.00 | 0.00 | 0.00 | 78 | 1004.8 |
| 20260505173536 | 78 | 190 | 12.0 | 16.0 | 0.00 | 0.00 | 0.00 | 77 | 1004.9 |
| 20260505173049 | 77 | 200 | 11.0 | 15.0 | 0.00 | 0.00 | 0.00 | 78 | 1005.0 |
| 20260505172534 | 77 | 205 | 11.0 | 16.0 | 0.00 | 0.00 | 0.00 | 78 | 1005.0 |
| 20260505172037 | 77 | 204 | 12.0 | 18.0 | 0.00 | 0.00 | 0.00 | 78 | 1005.0 |
| 20260505171547 | 77 | 197 | 11.0 | 18.0 | 0.00 | 0.00 | 0.00 | 78 | 1005.0 |
| 20260505171039 | 77 | 205 | 14.0 | 17.0 | 0.00 | 0.00 | 0.00 | 78 | 1005.0 |
| 20260505170538 | 76 | 200 | 10.0 | 19.0 | 0.00 | 0.00 | 0.00 | 80 | 1005.0 |
| 20260505170050 | 77 | 205 | 11.0 | 19.0 | 0.00 | 0.00 | 0.00 | 79 | 1005.2 |
| 20260505165538 | 76 | 195 | 12.0 | 18.0 | 0.00 | 0.00 | 0.00 | 79 | 1005.1 |
| 20260505165037 | 76 | 201 | 12.0 | 17.0 | 0.00 | 0.00 | 0.00 | 79 | 1005.2 |
| 20260505164557 | 76 | 196 | 12.0 | 17.0 | 0.00 | 0.00 | 0.00 | 80 | 1005.2 |
| 20260505164037 | 76 | 205 | 11.0 | 18.0 | 0.00 | 0.00 | 0.00 | 80 | 1005.2 |
| 20260505163538 | 76 | 197 | 12.0 | 19.0 | 0.00 | 0.00 | 0.00 | 80 | 1005.0 |
| 20260505163050 | 76 | 196 | 14.0 | 22.0 | 0.00 | 0.00 | 0.00 | 80 | 1005.1 |
| 20260505162535 | 76 | 200 | 13.0 | 22.0 | 0.00 | 0.00 | 0.00 | 80 | 1005.1 |
| 20260505162038 | 75 | 198 | 16.0 | 22.0 | 0.00 | 0.00 | 0.00 | 81 | 1004.9 |
| 20260505161556 | 75 | 192 | 13.0 | 23.0 | 0.00 | 0.00 | 0.00 | 81 | 1004.8 |
| 20260505161042 | 75 | 200 | 17.0 | 23.0 | 0.00 | 0.00 | 0.00 | 81 | 1004.8 |
| 20260505160539 | 75 | 196 | 14.0 | 21.0 | 0.00 | 0.00 | 0.00 | 81 | 1004.8 |
| 20260505153108 | 74 | 195 | 14.0 | 23.0 | 0.00 | 0.00 | 0.00 | 83 | 1004.7 |
| 20260505152543 | 74 | 199 | 15.0 | 23.0 | 0.00 | 0.00 | 0.00 | 82 | 1004.7 |
| 20260505152038 | 74 | 192 | 17.0 | 25.0 | 0.00 | 0.00 | 0.00 | 82 | 1004.6 |
| 20260505151549 | 74 | 196 | 16.0 | 25.0 | 0.00 | 0.00 | 0.00 | 83 | 1004.6 |
| 20260505151039 | 74 | 190 | 16.0 | 21.0 | 0.00 | 0.00 | 0.00 | 83 | 1004.8 |
| 20260505150538 | 74 | 207 | 15.0 | 22.0 | 0.00 | 0.00 | 0.00 | 83 | 1005.0 |
| 20260505140540 | 72 | 190 | 15.0 | 23.0 | 0.00 | 0.00 | 0.00 | 85 | 1004.8 |
| 20260505125038 | 71 | 183 | 13.0 | 19.0 | 0.00 | 0.00 | 0.00 | 87 | 1004.4 |
| 20260505124549 | 71 | 180 | 12.0 | 19.0 | 0.00 | 0.00 | 0.00 | 87 | 1004.2 |
| 20260505124037 | 71 | 169 | 12.0 | 19.0 | 0.00 | 0.00 | 0.00 | 87 | 1004.2 |
| 20260505123542 | 71 | 190 | 10.0 | 18.0 | 0.00 | 0.00 | 0.00 | 87 | 1004.2 |
| 20260505123052 | 71 | 180 | 11.0 | 19.0 | 0.00 | 0.00 | 0.00 | 87 | 1004.2 |
| 20260505122536 | 71 | 163 | 12.0 | 19.0 | 0.00 | 0.00 | 0.00 | 87 | 1004.1 |
| 20260505122039 | 71 | 193 | 12.0 | 19.0 | 0.00 | 0.00 | 0.00 | 87 | 1003.8 |
| 20260505121545 | 71 | 183 | 11.0 | 22.0 | 0.00 | 0.00 | 0.00 | 87 | 1003.9 |
| 20260505121039 | 71 | 190 | 15.0 | 22.0 | 0.00 | 0.00 | 0.00 | 87 | 1003.9 |
| 20260505120537 | 71 | 177 | 14.0 | 21.0 | 0.00 | 0.00 | 0.00 | 87 | 1003.8 |
| 20260505120100 | 71 | 192 | 13.0 | 22.0 | 0.00 | 0.00 | 0.00 | 86 | 1003.8 |
| 20260505115538 | 71 | 182 | 13.0 | 25.0 | 0.00 | 0.00 | 0.00 | 86 | 1003.8 |
| 20260505115041 | 71 | 198 | 16.0 | 25.0 | 0.00 | 0.00 | 0.00 | 86 | 1003.7 |
| 20260505114551 | 71 | 195 | 14.0 | 21.0 | 0.00 | 0.00 | 0.00 | 86 | 1003.7 |
| 20260505114041 | 71 | 198 | 15.0 | 26.0 | 0.00 | 0.00 | 0.00 | 86 | 1003.7 |
| 20260505113539 | 71 | 180 | 15.0 | 26.0 | 0.00 | 0.00 | 0.00 | 86 | 1003.7 |
| 20260505113103 | 71 | 173 | 15.0 | 22.0 | 0.00 | 0.00 | 0.00 | 86 | 1003.6 |
| 20260505112539 | 71 | 168 | 15.0 | 27.0 | 0.00 | 0.00 | 0.00 | 85 | 1003.5 |
| 20260505112037 | 72 | 200 | 16.0 | 27.0 | 0.00 | 0.00 | 0.00 | 85 | 1003.5 |
| 20260505111550 | 72 | 194 | 16.0 | 25.0 | 0.00 | 0.00 | 0.00 | 85 | 1003.4 |
| 20260505111041 | 72 | 185 | 15.0 | 22.0 | 0.00 | 0.00 | 0.00 | 85 | 1003.4 |
| 20260505110536 | 72 | 193 | 15.0 | 22.0 | 0.00 | 0.00 | 0.00 | 86 | 1003.5 |
| 20260505102038 | 71 | 204 | 14.0 | 23.0 | 0.00 | 0.00 | 0.00 | 86 | 1003.7 |
| 20260505101550 | 71 | 194 | 14.0 | 23.0 | 0.00 | 0.00 | 0.00 | 86 | 1003.7 |
| 20260505101041 | 71 | 191 | 13.0 | 23.0 | 0.00 | 0.00 | 0.00 | 86 | 1003.6 |
| 20260505100541 | 71 | 180 | 14.0 | 23.0 | 0.00 | 0.00 | 0.00 | 86 | 1003.7 |
| 20260505100045 | 71 | 191 | 14.0 | 24.0 | 0.00 | 0.00 | 0.00 | 86 | 1003.7 |
| 20260505095537 | 71 | 182 | 16.0 | 27.0 | 0.00 | 0.00 | 0.00 | 85 | 1003.6 |
| 20260505095040 | 71 | 165 | 17.0 | 27.0 | 0.00 | 0.00 | 0.00 | 85 | 1003.7 |
| 20260505094549 | 71 | 183 | 16.0 | 23.0 | 0.00 | 0.00 | 0.00 | 86 | 1003.7 |
| 20260505094039 | 71 | 177 | 18.0 | 23.0 | 0.00 | 0.00 | 0.00 | 85 | 1003.6 |
| 20260505093537 | 71 | 192 | 16.0 | 24.0 | 0.00 | 0.00 | 0.00 | 85 | 1003.7 |
| 20260505093054 | 72 | 202 | 16.0 | 24.0 | 0.00 | 0.00 | 0.00 | 85 | 1003.8 |
| 20260505092539 | 72 | 184 | 15.0 | 25.0 | 0.00 | 0.00 | 0.00 | 85 | 1003.9 |
| 20260505092039 | 72 | 180 | 17.0 | 28.0 | 0.00 | 0.00 | 0.00 | 85 | 1003.9 |
| 20260505091545 | 72 | 184 | 17.0 | 28.0 | 0.00 | 0.00 | 0.00 | 85 | 1004.0 |
| 20260505091038 | 72 | 188 | 18.0 | 26.0 | 0.00 | 0.00 | 0.00 | 85 | 1003.9 |
| 20260505090538 | 72 | 187 | 17.0 | 25.0 | 0.00 | 0.00 | 0.00 | 85 | 1004.1 |
| 20260505090048 | 72 | 190 | 18.0 | 25.0 | 0.00 | 0.00 | 0.00 | 85 | 1004.1 |
| 20260505085539 | 72 | 174 | 16.0 | 26.0 | 0.00 | 0.00 | 0.00 | 85 | 1004.0 |
| 20260505085039 | 72 | 182 | 16.0 | 26.0 | 0.00 | 0.00 | 0.00 | 84 | 1004.2 |
| 20260505084552 | 72 | 189 | 17.0 | 24.0 | 0.00 | 0.00 | 0.00 | 84 | 1004.2 |
| 20260505084038 | 72 | 170 | 17.0 | 24.0 | 0.00 | 0.00 | 0.00 | 84 | 1004.1 |
| 20260505083538 | 72 | 173 | 17.0 | 25.0 | 0.00 | 0.00 | 0.00 | 84 | 1004.1 |
| 20260505083051 | 72 | 193 | 15.0 | 25.0 | 0.00 | 0.00 | 0.00 | 84 | 1004.0 |
| 20260505082539 | 72 | 172 | 13.0 | 22.0 | 0.00 | 0.00 | 0.00 | 84 | 1004.1 |
| 20260505082039 | 72 | 175 | 15.0 | 22.0 | 0.00 | 0.00 | 0.00 | 84 | 1004.3 |
| 20260505081552 | 72 | 150 | 13.0 | 21.0 | 0.00 | 0.00 | 0.00 | 83 | 1004.3 |
| 20260505081039 | 72 | 183 | 12.0 | 22.0 | 0.00 | 0.00 | 0.00 | 83 | 1004.3 |
| 20260505080539 | 72 | 178 | 10.0 | 22.0 | 0.00 | 0.00 | 0.00 | 83 | 1004.1 |
| 20260505080044 | 72 | 189 | 14.0 | 21.0 | 0.00 | 0.00 | 0.00 | 83 | 1004.3 |
| 20260505075538 | 72 | 201 | 14.0 | 24.0 | 0.00 | 0.00 | 0.00 | 82 | 1004.3 |
| 20260505075038 | 73 | 196 | 14.0 | 25.0 | 0.00 | 0.00 | 0.00 | 83 | 1004.4 |
| 20260505074548 | 73 | 167 | 14.0 | 25.0 | 0.00 | 0.00 | 0.00 | 82 | 1004.3 |
| 20260505074038 | 73 | 193 | 15.0 | 23.0 | 0.00 | 0.00 | 0.00 | 82 | 1004.5 |
| 20260505073538 | 73 | 174 | 15.0 | 24.0 | 0.00 | 0.00 | 0.00 | 82 | 1004.6 |
| 20260505073050 | 73 | 177 | 16.0 | 25.0 | 0.00 | 0.00 | 0.00 | 81 | 1004.6 |
| 20260505072538 | 73 | 186 | 16.0 | 27.0 | 0.00 | 0.00 | 0.00 | 81 | 1004.7 |
| 20260505072038 | 73 | 173 | 18.0 | 27.0 | 0.00 | 0.00 | 0.00 | 80 | 1004.7 |
| 20260505071544 | 73 | 191 | 18.0 | 27.0 | 0.00 | 0.00 | 0.00 | 80 | 1004.8 |
| 20260505071038 | 73 | 178 | 17.0 | 25.0 | 0.00 | 0.00 | 0.00 | 80 | 1005.0 |
| 20260505070539 | 73 | 192 | 16.0 | 24.0 | 0.00 | 0.00 | 0.00 | 80 | 1005.0 |
| 20260505070050 | 73 | 188 | 16.0 | 28.0 | 0.00 | 0.00 | 0.00 | 79 | 1005.2 |
| 20260505065538 | 73 | 157 | 16.0 | 28.0 | 0.00 | 0.00 | 0.00 | 79 | 1005.4 |
| 20260505065038 | 74 | 176 | 16.0 | 23.0 | 0.00 | 0.00 | 0.00 | 78 | 1005.3 |
| 20260505064557 | 74 | 190 | 14.0 | 22.0 | 0.00 | 0.00 | 0.00 | 79 | 1005.5 |
| 20260505064037 | 74 | 190 | 14.0 | 22.0 | 0.00 | 0.00 | 0.00 | 78 | 1005.7 |
| 20260505063541 | 74 | 179 | 12.0 | 21.0 | 0.00 | 0.00 | 0.00 | 78 | 1005.7 |
| 20260505063049 | 74 | 173 | 13.0 | 22.0 | 0.00 | 0.00 | 0.00 | 78 | 1005.7 |
| 20260505062539 | 74 | 175 | 15.0 | 22.0 | 0.00 | 0.00 | 0.00 | 77 | 1005.7 |
| 20260505062039 | 74 | 182 | 13.0 | 23.0 | 0.00 | 0.00 | 0.00 | 77 | 1005.7 |
| 20260505061545 | 74 | 165 | 15.0 | 23.0 | 0.00 | 0.00 | 0.00 | 77 | 1005.6 |
| 20260505061039 | 74 | 177 | 15.0 | 25.0 | 0.00 | 0.00 | 0.00 | 77 | 1005.7 |
| 20260505060539 | 74 | 184 | 16.0 | 25.0 | 0.00 | 0.00 | 0.00 | 77 | 1005.6 |
| 20260505060057 | 74 | 186 | 13.0 | 21.0 | 0.00 | 0.00 | 0.00 | 77 | 1005.6 |
| 20260505055539 | 74 | 177 | 13.0 | 21.0 | 0.00 | 0.00 | 0.00 | 77 | 1005.6 |
| 20260505055039 | 74 | 184 | 15.0 | 28.0 | 0.00 | 0.00 | 0.00 | 77 | 1005.4 |
| 20260505054550 | 74 | 180 | 12.0 | 28.0 | 0.00 | 0.00 | 0.00 | 77 | 1005.5 |
| 20260505054040 | 74 | 189 | 14.0 | 24.0 | 0.00 | 0.00 | 0.00 | 76 | 1005.5 |
| 20260505053538 | 74 | 190 | 14.0 | 23.0 | 0.00 | 0.00 | 0.00 | 76 | 1005.5 |
| 20260505053109 | 74 | 168 | 13.0 | 23.0 | 0.00 | 0.00 | 0.00 | 76 | 1005.5 |
| 20260505052538 | 74 | 183 | 15.0 | 23.0 | 0.00 | 0.00 | 0.00 | 76 | 1005.6 |
| 20260505052041 | 74 | 186 | 14.0 | 25.0 | 0.00 | 0.00 | 0.00 | 76 | 1005.7 |
| 20260505051545 | 74 | 155 | 16.0 | 25.0 | 0.00 | 0.00 | 0.00 | 76 | 1005.8 |
| 20260505051039 | 74 | 194 | 14.0 | 23.0 | 0.00 | 0.00 | 0.00 | 76 | 1005.8 |
| 20260505050538 | 74 | 182 | 15.0 | 23.0 | 0.00 | 0.00 | 0.00 | 76 | 1005.9 |
| 20260505050103 | 74 | 186 | 13.0 | 23.0 | 0.00 | 0.00 | 0.00 | 76 | 1005.9 |